Weather History for KMCK - May, 2013

Change the Weather History Date:

Wednesday, May 29, 2013

  Actual Average Record
Temperature  
Mean Temperature 72 °F 64 °F  
Max Temperature 88 °F 77 °F 103 °F (2000)
Min Temperature 55 °F 50 °F 36 °F (1992)
Cooling Degree Days 6    
Growing Degree Days 20 (Base 50)    
Moisture  
Dew Point 56 °F    
Average Humidity 75    
Maximum Humidity 94    
Minimum Humidity 37    
Precipitation  
Precipitation 0.35 in 0.11 in - ()
Month to date precipitation 1.10 2.90  
Year to date precipitation 4.67 7.70  
Sea Level Pressure  
Sea Level Pressure 29.48 in    
Wind  
Wind Speed 13 mph (ENE)    
Max Wind Speed 31 mph    
Max Gust Speed 46 mph    
Visibility 8 miles    
Events Rain , Thunderstorm    
T = Trace of Precipitation, MM = Missing Value Source: NWS Daily Summary

Daily Weather History Graph

Daily Weather History Graph

Search for Another Location

Airport or City:

Trip Planner

Search our weather history database for the weather conditions in past years. The results will help you decide how hot, cold, wet, or windy it might be!

Date:

Astronomy

May. 29, 2013 Rise Set
Actual Time 6:16 AM CDT 9:03 PM CDT
Civil Twilight 5:44 AM CDT 9:35 PM CDT
Nautical Twilight 5:03 AM CDT 10:16 PM CDT
Astronomical Twilight 4:17 AM CDT 11:02 PM CDT
Moon 12:27 AM CDT (5/29) 11:17 AM CDT (5/29)
Length of Visible Light 15h 51m
Length of Day
14h 47m
Waning Gibbous, 73% of the Moon is Illuminated
May 29
Waning Gibbous
May 31
Last Quarter
Jun 8
New
Jun 16
First Quarter
Jun 23
Full

Hourly Weather History & Observations

Time (CDT) Temp. Heat Index Dew Point Humidity Pressure Visibility Wind Dir Wind Speed Gust Speed Precip Events Conditions
12:53 AM 66.9 °F - 61.0 °F 81% 29.47 in 10.0 mi East 4.6 mph - N/A   Clear
1:53 AM 66.0 °F - 53.1 °F 63% 29.50 in 10.0 mi ESE 5.8 mph - N/A   Clear
2:53 AM 64.0 °F - 55.9 °F 75% 29.52 in 10.0 mi North 13.8 mph 24.2 mph N/A   Clear
3:53 AM 64.0 °F - 57.0 °F 78% 29.54 in 10.0 mi North 8.1 mph - N/A   Partly Cloudy
4:53 AM 61.0 °F - 54.0 °F 78% 29.54 in 10.0 mi ENE 12.7 mph - N/A   Overcast
5:53 AM 61.0 °F - 55.9 °F 83% 29.56 in 10.0 mi NNE 9.2 mph - N/A   Overcast
6:53 AM 61.0 °F - 57.9 °F 90% 29.54 in 7.0 mi ENE 8.1 mph - N/A   Overcast
7:14 AM 60.8 °F - 57.2 °F 88% 29.59 in 5.0 mi NE 8.1 mph - N/A   Overcast
7:53 AM 64.0 °F - 59.0 °F 84% 29.51 in 5.0 mi NE 8.1 mph - N/A   Haze
8:53 AM 68.0 °F - 61.0 °F 78% 29.49 in 6.0 mi ESE 6.9 mph - N/A   Haze
9:53 AM 73.9 °F - 62.1 °F 66% 29.45 in 8.0 mi SSE 13.8 mph - N/A   Clear
10:53 AM 77.0 °F - 61.0 °F 58% 29.44 in 9.0 mi SSE 20.7 mph 25.3 mph N/A   Mostly Cloudy
11:53 AM 82.0 °F 82.7 °F 61.0 °F 49% 29.44 in 9.0 mi South 19.6 mph 26.5 mph N/A   Mostly Cloudy
12:53 PM 84.9 °F 84.8 °F 60.1 °F 43% 29.41 in 10.0 mi SSE 18.4 mph 26.5 mph N/A   Scattered Clouds
1:53 PM 82.0 °F 82.1 °F 59.0 °F 45% 29.35 in 9.0 mi South 24.2 mph 40.3 mph N/A   Partly Cloudy
2:53 PM 84.9 °F 83.7 °F 55.9 °F 37% 29.32 in 8.0 mi South 26.5 mph 38.0 mph N/A   Partly Cloudy
3:53 PM 84.0 °F 83.3 °F 57.0 °F 40% 29.28 in 10.0 mi South 20.7 mph 31.1 mph N/A   Partly Cloudy
4:05 PM 71.6 °F - 53.6 °F 53% 29.37 in 10.0 mi West 17.3 mph 29.9 mph N/A Thunderstorm Mostly Cloudy
4:13 PM 73.4 °F - 55.4 °F 53% 29.35 in 9.0 mi NNE 23.0 mph 33.4 mph N/A Thunderstorm Mostly Cloudy
4:32 PM 69.8 °F - 51.8 °F 53% 29.39 in 10.0 mi North 25.3 mph 44.9 mph N/A Thunderstorm Overcast
4:53 PM 64.0 °F - 55.0 °F 73% 29.44 in 10.0 mi West 21.9 mph 33.4 mph N/A Thunderstorm Thunderstorm
5:01 PM 62.6 °F - 53.6 °F 72% 29.49 in 6.0 mi WSW 12.7 mph 33.4 mph 0.00 in Rain , Thunderstorm Light Thunderstorms and Rain
5:53 PM 62.1 °F - 57.0 °F 84% 29.46 in 5.0 mi Variable 4.6 mph - 0.03 in Rain , Thunderstorm Light Rain
6:05 PM 62.6 °F - 55.4 °F 77% 29.47 in 3.0 mi ENE 4.6 mph - 0.02 in Rain Light Rain
6:38 PM 62.6 °F - 57.2 °F 82% 29.50 in 5.0 mi ENE 13.8 mph - 0.06 in Rain , Thunderstorm Light Rain
6:53 PM 60.1 °F - 57.0 °F 90% 29.40 in 3.0 mi NNE 24.2 mph 31.1 mph 0.09 in Rain Rain
7:13 PM 59.0 °F - 55.4 °F 88% 29.46 in 7.0 mi NNE 19.6 mph 28.8 mph 0.01 in Rain , Thunderstorm Light Rain
7:31 PM 60.8 °F - 55.4 °F 82% 29.54 in 4.0 mi West 23.0 mph 32.2 mph 0.04 in Rain , Thunderstorm Rain
7:36 PM 59.0 °F - 55.4 °F 88% 29.54 in 1.8 mi WNW 31.1 mph 46.0 mph 0.08 in Rain , Thunderstorm Heavy Rain
7:46 PM 57.2 °F - 53.6 °F 88% 29.53 in 3.0 mi NW 28.8 mph 42.6 mph 0.11 in Rain , Thunderstorm Rain
7:53 PM 57.9 °F - 54.0 °F 87% 29.50 in 4.0 mi NW 24.2 mph 36.8 mph 0.11 in Rain Light Rain
8:53 PM 59.0 °F - 55.0 °F 87% 29.45 in 10.0 mi NNE 20.7 mph 29.9 mph 0.09 in Rain , Thunderstorm Light Thunderstorms and Rain
9:09 PM 59.0 °F - 55.4 °F 88% 29.54 in 8.0 mi East 9.2 mph - 0.01 in Rain Light Rain
9:53 PM 57.9 °F - 55.0 °F 90% 29.42 in 10.0 mi ENE 25.3 mph 39.1 mph 0.03 in Rain Light Rain
10:34 PM 57.2 °F - 55.4 °F 94% 29.61 in 10.0 mi South 13.8 mph 20.7 mph N/A   Mostly Cloudy
10:53 PM 59.0 °F - 55.0 °F 87% 29.55 in 10.0 mi SSE 9.2 mph - N/A   Mostly Cloudy
11:13 PM 57.2 °F - 53.6 °F 88% 29.60 in 10.0 mi SSE 5.8 mph - N/A   Scattered Clouds
11:53 PM 55.9 °F - 54.0 °F 93% 29.54 in 10.0 mi Calm Calm - N/A   Partly Cloudy